This is the latest recevied weather packets stored in our database for station/object DK4ARL. If no packets are shown the sender has not sent any weather packets the latest 10 day(s).
| Time | Temp. | Humidity | Pressure | Rain* | Wind** | Luminosity | Snow |
|---|---|---|---|---|---|---|---|
| 1777733589 | 27.22° C | - | 981.7 hPa | 0 mm | - | - | - |
| 1777732664 | 27.78° C | - | 981.9 hPa | 0 mm | - | - | - |
| 1777731739 | 28.33° C | - | 982.1 hPa | 0 mm | - | - | - |
| 1777730813 | 30° C | - | 982.3 hPa | 0 mm | - | - | - |
| 1777729887 | 28.89° C | - | 982.4 hPa | 0 mm | - | - | - |
| 1777728961 | 30.56° C | - | 982.6 hPa | 0 mm | - | - | - |
| 1777728036 | 29.44° C | - | 982.8 hPa | 0 mm | - | - | - |
| 1777727111 | 26.67° C | - | 983 hPa | 0 mm | - | - | - |
| 1777726187 | 27.22° C | - | 983.2 hPa | 0 mm | - | - | - |
| 1777725264 | 28.33° C | - | 983.4 hPa | 0 mm | - | - | - |
| 1777723423 | 28.33° C | - | 983.8 hPa | 0 mm | - | - | - |
| 1777722505 | 29.44° C | - | 984 hPa | 0 mm | - | - | - |
| 1777721588 | 27.22° C | - | 984.2 hPa | 0 mm | - | - | - |
| 1777720673 | 28.33° C | - | 984.4 hPa | 0 mm | - | - | - |
| 1777719758 | 27.22° C | - | 984.5 hPa | 0 mm | - | - | - |
| 1777718844 | 26.67° C | - | 984.7 hPa | 0 mm | - | - | - |
| 1777717931 | 27.22° C | - | 984.8 hPa | 0 mm | - | - | - |
| 1777717018 | 25° C | - | 984.9 hPa | 0 mm | - | - | - |
| 1777716106 | 24.44° C | - | 985 hPa | 0 mm | - | - | - |
| 1777715195 | 25° C | - | 985.1 hPa | 0 mm | - | - | - |
| 1777714286 | 23.33° C | - | 985.2 hPa | 0 mm | - | - | - |
| 1777713377 | 22.22° C | - | 985.3 hPa | 0 mm | - | - | - |
| 1777712470 | 22.22° C | - | 985.3 hPa | 0 mm | - | - | - |
| 1777711564 | 22.78° C | - | 985.4 hPa | 0 mm | - | - | - |
| 1777710659 | 21.11° C | - | 985.4 hPa | 0 mm | - | - | - |
* Rain latest hour (hover to see other rain measurements)
** Current wind speed in m/s (hover to see current wind gust speed)